This demonstration page uses our WeatherBlox Daily Observations layout. Learn more.

Left ArrowRight Arrow

44.8408, -93.29828

Hourly Observations for July 4, 2022

Temp ( °F °C ) Dew Point ( °F °C ) Humidity (%) Winds ( mph kmh ) Pressure ( in mb ) Visibility ( mi km ) Precip ( " mm )
12:53 am 00:53 Mostly Cloudy 77 25 61 16.1 58 58 S 14 22 29.94 1014 10 16 0.00 0.00
1:53 am 01:53 Mostly Cloudy 76 24.4 60 15.6 58 58 S 14 22 29.94 1014 10 16 0.00 0.00
2:53 am 02:53 Mostly Cloudy 75 23.9 60 15.6 60 60 S 12 19 29.93 1014 10 16 0.00 0.00
3:53 am 03:53 Cloudy 73 22.8 60 15.6 64 64 S 10 17 29.92 1013 10 16 0.00 0.00
4:53 am 04:53 Cloudy 73 22.8 60 15.6 64 64 SSE 8 13 29.90 1013 10 16 0.00 0.00
5:53 am 05:53 Cloudy 71 21.7 60 15.6 68 68 SSE 8 13 29.89 1012 10 16 0.00 0.00
6:53 am 06:53 Cloudy 72 22.2 60 15.6 66 66 SSE 9 15 29.87 1012 10 16 0.00 0.00
7:53 am 07:53 Cloudy 73 22.8 62 16.7 69 69 SW 9 15 29.90 1012 10 16 0.00 0.00
7:59 am 07:59 Cloudy with Thunderstorms 73 22.8 63 17.2 71 71 SSW 14 22 29.89 1012 5 8 0.00 0.00
8:01 am 08:01 Cloudy with Thunderstorms 73 22.8 63 17.2 71 71 SW 13 20 29.89 1012 2 2 0.00 0.00
8:03 am 08:03 Cloudy with Thunderstorms 72 22.2 64 17.8 76 76 SW 12 19 29.89 1012 1 1 0.00 0.00
8:12 am 08:12 Cloudy with Rain 70 21.1 65 18.3 84 84 SW 6 9 29.89 1012 3 5 0.08 2.03
8:21 am 08:21 Cloudy with Light Rain 70 21.1 65 18.3 84 84 SSW 6 9 29.89 1012 3 4 0.09 2.29
8:33 am 08:33 Cloudy with Light Rain 70 21.1 67 19.4 90 90 Calm 29.88 1012 3 5 0.14 3.56
8:53 am 08:53 Cloudy with Light Rain 70 21.1 67 19.4 90 90 S 7 11 29.89 1012 3 5 0.18 4.57
9:53 am 09:53 Cloudy with Light Rain 70 21.1 68 20 93 93 SSE 8 13 29.87 1012 4 6 0.08 2.03
10:53 am 10:53 Cloudy 72 22.2 68 20 87 87 SE 9 15 29.84 1010 10 16 0.03 0.76
11:53 am 11:53 Cloudy 72 22.2 68 20 87 87 ESE 12 19 29.85 1011 10 16 0.00 0.00
12:23 pm 12:23 Mostly Cloudy 74 23.3 68 20 82 82 SE 14 22 29.82 1010 10 16 0.00 0.00
12:53 pm 12:53 Cloudy 76 24.4 69 20.6 79 79 SE 14 22 29.82 1010 10 16 0.00 0.00
1:30 pm 13:30 Cloudy 77 25 68 20 74 74 SE 10 17 29.81 1010 10 16 0.00 0.00
1:53 pm 13:53 Cloudy 79 26.1 68 20 69 69 SE 13 20 29.81 1010 10 16 0.00 0.00
2:43 pm 14:43 Mostly Cloudy 80 26.7 69 20.6 69 69 VRB 7 11 29.79 1009 10 16 0.00 0.00
2:51 pm 14:51 Mostly Cloudy 81 27 70 21 70 70 ESE 12 19 29.78 1008 10 16 0.00 0.00
2:53 pm 14:53 Mostly Cloudy 80 26.7 69 20.6 69 69 ESE 12 19 29.80 1009 10 16 0.00 0.00
3:41 pm 15:41 Mostly Cloudy 81 27.2 69 20.6 67 67 SSE 10 17 29.77 1008 10 16 0.00 0.00
3:53 pm 15:53 Mostly Cloudy 82 27.8 69 20.6 65 65 VRB 7 11 29.80 1009 10 16 0.00 0.00
4:53 pm 16:53 Mostly Cloudy 83 28.3 68 20 61 61 VRB 3 6 29.79 1009 10 16 0.00 0.00
5:53 pm 17:53 Mostly Cloudy 87 30.6 68 20 53 53 VRB 5 7 29.79 1009 10 16 0.00 0.00
6:53 pm 18:53 Mostly Cloudy 86 30 68 20 55 55 W 7 11 29.79 1009 10 16 0.00 0.00
7:53 pm 19:53 Mostly Cloudy 86 30 69 20.6 57 57 WNW 3 6 29.79 1009 10 16 0.00 0.00
8:53 pm 20:53 Partly Cloudy 80 26.7 72 22.2 76 76 ESE 9 15 29.80 1009 10 16 0.00 0.00
9:53 pm 21:53 Mostly Clear 78 25.6 72 22.2 82 82 ESE 9 15 29.81 1010 10 16 0.00 0.00
10:53 pm 22:53 Clear 77 25 72 22.2 85 85 ESE 9 15 29.81 1010 9 14 0.00 0.00
11:53 pm 23:53 Clear 75 23.9 72 22.2 90 90 SE 6 9 29.82 1010 10 16 0.00 0.00

Powered by AerisWeather